(234) Barbara

Orbital Elements

The following orbital elements are taken from MPC 35405:
  (234) Barbara
Epoch 2001 Apr. 1.0 TT = JDT 2452000.5                  Goffin
M 320.44007              (2000.0)            P               Q
n   0.26730780     Peri.  191.65641     +0.91175962     +0.38117829
a   2.3866842      Node   144.68062     -0.35236315     +0.91728799
e   0.2430854      Incl.   15.34198     -0.21103226     +0.11526431
P   3.69           H    9.02          G   0.15           U   0
From 278 observations at 49 oppositions, 1883-1999, mean residual 0".54.
An explanation of the orbital elements is available.

These orbital elements are also available in forms suitable for loading into a number of popular planetarium-type software programs.


Ephemeris

The following ephemeris is at intervals of five days. A daily ephemeris covering the same time interval is also available.

Date    TT    R. A. (2000) Decl.     Delta      r     Elong.  Phase     V
 
2001 06 30    22 37.28   -02 08.9    1.132    1.843   118.0    29.1    11.9
2001 07 05    22 42.07   -02 26.1    1.085    1.837   121.8    28.1    11.8
2001 07 10    22 46.28   -02 51.8    1.041    1.831   125.8    26.8    11.6
2001 07 15    22 49.86   -03 26.8    0.999    1.827   130.0    25.2    11.5
2001 07 20    22 52.76   -04 11.8    0.961    1.822   134.4    23.5    11.3
2001 07 25    22 54.94   -05 07.0    0.925    1.818   139.0    21.5    11.2
2001 07 30    22 56.38   -06 12.5    0.893    1.815   143.9    19.2    11.0
2001 08 04    22 57.08   -07 27.9    0.866    1.812   149.0    16.7    10.9
2001 08 09    22 57.05   -08 52.4    0.842    1.810   154.3    14.1    10.7
2001 08 14    22 56.33   -10 24.5    0.824    1.808   159.7    11.2    10.6
2001 08 19    22 54.97   -12 02.4    0.811    1.807   164.9     8.4    10.4
2001 08 24    22 53.11   -13 43.3    0.803    1.807   169.6     5.8    10.3
2001 08 29    22 50.90   -15 24.2    0.801    1.807   172.1     4.4    10.2
2001 09 03    22 48.50   -17 02.3    0.804    1.807   170.6     5.2    10.3
2001 09 08    22 46.10   -18 34.5    0.814    1.808   166.3     7.6    10.4
2001 09 13    22 43.87   -19 58.5    0.828    1.810   161.1    10.4    10.6
2001 09 18    22 41.99   -21 12.4    0.848    1.812   155.8    13.1    10.7
2001 09 23    22 40.63   -22 14.9    0.872    1.814   150.5    15.8    10.9
2001 09 28    22 39.92   -23 05.2    0.902    1.818   145.4    18.3    11.0
2001 10 03    22 39.94   -23 43.5    0.935    1.821   140.5    20.5    11.2
2001 10 08    22 40.71   -24 10.0    0.972    1.826   135.7    22.5    11.3
2001 10 13    22 42.27   -24 25.4    1.012    1.830   131.2    24.2    11.5
2001 10 18    22 44.61   -24 30.4    1.055    1.836   127.0    25.7    11.6
2001 10 23    22 47.70   -24 25.9    1.101    1.841   122.9    27.0    11.8
2001 10 28    22 51.51   -24 12.7    1.149    1.848   119.0    28.1    11.9

Back to Bright Minor Planets

Astronomical Headlines Index

MPC